Date String (YYYY-MM-DD hh:mm:ss) UTC,Instrument flags,Ambient pressure (hPa),Sample flow (lpm),Bypass flow (lpm),Sample temperature (°C),Ambient temperature (°C),ASC tube jacket temperature (°C),LED temperature (°C),Box temperature (°C),Sample RH (%),Span deviation,Mass concentration (μg/m³),Mass concentration (μg/m³),Mass concentration (μg/m³)
DateTimeUTC,F1_M11,P_M11,Q1_M11,Q2_M11,T1_M11,T2_M11,T3_M11,T4_M11,T5_M11,U1_M11,ZSPAN_M11,X0_M11,X2_M11,X1_M11
2022-02-05 02:00:00,,0831.4,4.99,0.00,21.9,22.5,00.0,30.7,23.8,08.4,0000.0,0009.93,0004.90,0004.42
2022-02-05 02:01:00,,0831.4,5.01,0.00,22.0,22.3,00.0,30.8,23.8,08.3,0000.0,0009.65,0004.78,0004.33
2022-02-05 02:02:00,,0831.4,5.00,0.00,22.0,22.2,00.0,30.8,23.8,08.2,0000.0,0009.60,0004.69,0004.24
2022-02-05 02:03:00,,0831.4,5.00,0.00,22.0,22.0,00.0,30.8,23.8,08.2,0000.0,0009.45,0004.62,0004.16
2022-02-05 02:04:00,,0831.4,5.00,0.00,22.0,21.9,00.0,30.9,23.8,08.2,0000.0,0009.21,0004.51,0004.08
2022-02-05 02:05:00,,0831.5,5.00,0.00,22.0,21.8,00.0,30.9,23.8,08.2,0000.0,0010.09,0004.44,0004.01
2022-02-05 02:06:00,,0831.4,5.00,0.00,22.0,21.6,00.0,30.9,23.7,08.2,0000.0,0010.34,0004.34,0003.90
2022-02-05 02:07:00,,0831.4,4.99,0.00,21.9,21.4,00.0,30.9,23.5,08.2,0000.0,0010.54,0004.28,0003.85
2022-02-05 02:08:00,,0831.4,5.00,0.00,21.9,21.3,00.0,30.9,23.5,08.2,0000.0,0010.41,0004.26,0003.84
2022-02-05 02:09:00,,0831.4,5.01,0.00,21.9,21.3,00.0,30.9,23.5,08.2,0000.0,0009.62,0004.25,0003.82
2022-02-05 02:10:00,,0831.4,5.00,0.00,21.9,21.3,00.0,30.9,23.6,08.2,0000.0,0009.73,0004.28,0003.83
2022-02-05 02:11:00,,0831.4,4.99,0.00,21.8,21.1,00.0,30.9,23.5,08.3,0000.0,0010.41,0004.31,0003.86
2022-02-05 02:12:00,,0831.4,5.01,0.00,21.7,21.0,00.0,30.8,23.3,08.4,0000.0,0010.42,0004.35,0003.88
2022-02-05 02:13:00,,0831.4,4.99,0.00,21.7,21.0,00.0,30.8,23.3,08.4,0000.0,0010.38,0004.37,0003.90
2022-02-05 02:14:00,,0831.3,5.02,0.00,21.7,21.0,00.0,30.8,23.3,08.4,0000.0,0010.36,0004.35,0003.92
2022-02-05 02:15:00,,0831.4,4.99,0.00,21.7,21.0,00.0,30.8,23.3,08.3,0000.0,0010.75,0004.35,0003.93
2022-02-05 02:16:00,,0831.4,5.00,0.00,21.7,20.9,00.0,30.8,23.3,08.3,0000.0,0010.37,0004.36,0003.94
2022-02-05 02:17:00,,0831.4,5.00,0.00,21.6,20.9,00.0,30.8,23.3,08.4,0000.0,0009.91,0004.33,0003.93
2022-02-05 02:18:00,,0831.4,5.00,0.00,21.6,20.9,00.0,30.8,23.3,08.4,0000.0,0009.42,0004.31,0003.92
2022-02-05 02:19:00,,0831.4,4.99,0.00,21.6,20.8,00.0,30.7,23.1,08.4,0000.0,0009.38,0004.29,0003.91
2022-02-05 02:20:00,,0831.2,5.01,0.00,21.5,20.7,00.0,30.7,23.1,08.4,0000.0,0009.28,0004.25,0003.90
2022-02-05 02:21:00,,0831.3,4.99,0.00,21.5,20.8,00.0,30.7,23.1,08.4,0000.0,0009.16,0004.21,0003.87
2022-02-05 02:22:00,,0831.4,4.99,0.00,21.6,21.1,00.0,30.7,23.3,08.4,0000.0,0008.57,0004.19,0003.84
2022-02-05 02:23:00,,0831.4,5.01,0.00,21.7,21.9,00.0,30.7,23.5,08.4,0000.0,0008.57,0004.17,0003.81
2022-02-05 02:24:00,,0831.4,4.99,0.00,21.8,22.6,00.0,30.8,23.8,08.3,0000.0,0008.51,0004.14,0003.79
2022-02-05 02:25:00,,0831.4,5.01,0.00,22.0,22.8,00.0,30.8,23.9,08.2,0000.0,0008.46,0004.13,0003.77
2022-02-05 02:26:00,,0831.4,4.99,0.00,22.0,22.5,00.0,30.8,23.8,08.2,0000.0,0008.08,0004.09,0003.74
2022-02-05 02:27:00,,0831.4,5.01,0.00,21.9,22.2,00.0,30.9,23.7,08.3,0000.0,0007.67,0004.06,0003.71
2022-02-05 02:28:00,,0831.3,5.00,0.00,21.9,21.9,00.0,30.8,23.5,08.3,0000.0,0007.53,0004.03,0003.68
2022-02-05 02:29:00,,0831.3,5.00,0.00,21.8,21.7,00.0,30.8,23.5,08.2,0000.0,0007.65,0004.03,0003.67
2022-02-05 02:30:00,,0831.3,4.99,0.00,21.8,21.5,00.0,30.8,23.4,08.3,0000.0,0007.67,0004.03,0003.67
2022-02-05 02:31:00,,0831.2,5.01,0.00,21.7,21.3,00.0,30.8,23.3,08.3,0000.0,0007.70,0004.02,0003.65
2022-02-05 02:32:00,,0831.2,4.99,0.00,21.7,21.1,00.0,30.8,23.2,08.3,0000.0,0007.66,0003.99,0003.64
2022-02-05 02:33:00,,0831.1,5.01,0.00,21.7,21.1,00.0,30.8,23.3,08.3,0000.0,0008.47,0004.01,0003.66
2022-02-05 02:34:00,,0831.2,4.99,0.00,21.7,21.1,00.0,30.8,23.4,08.3,0000.0,0009.30,0004.11,0003.74
2022-02-05 02:35:00,,0831.2,5.00,0.00,21.7,21.1,00.0,30.8,23.4,08.3,0000.0,0010.12,0004.41,0004.03
2022-02-05 02:36:00,,0831.2,5.01,0.00,21.7,21.1,00.0,30.8,23.4,08.3,0000.0,0010.72,0004.76,0004.36
2022-02-05 02:37:00,,0831.2,4.99,0.00,21.7,20.9,00.0,30.8,23.3,08.3,0000.0,0011.31,0004.96,0004.54
2022-02-05 02:38:00,,0831.1,4.98,0.00,21.6,20.9,00.0,30.7,23.2,08.3,0000.0,0011.37,0005.02,0004.60
2022-02-05 02:39:00,,0831.2,5.01,0.00,21.6,20.9,00.0,30.7,23.2,08.3,0000.0,0011.83,0005.12,0004.66
2022-02-05 02:40:00,,0831.2,5.00,0.00,21.6,20.9,00.0,30.7,23.2,08.3,0000.0,0012.03,0005.14,0004.70
2022-02-05 02:41:00,,0831.1,4.98,0.00,21.5,20.7,00.0,30.7,23.2,08.4,0000.0,0012.13,0005.22,0004.77
2022-02-05 02:42:00,,0831.2,5.00,0.00,21.5,20.7,00.0,30.7,23.0,08.5,0000.0,0012.10,0005.23,0004.80
2022-02-05 02:43:00,,0831.2,5.01,0.00,21.5,20.9,00.0,30.7,23.1,08.5,0000.0,0012.18,0005.32,0004.84
2022-02-05 02:44:00,,0831.2,4.98,0.00,21.6,21.7,00.0,30.7,23.4,08.4,0000.0,0011.74,0005.47,0004.99
2022-02-05 02:45:00,,0831.2,5.01,0.00,21.8,22.5,00.0,30.7,23.7,08.3,0000.0,0011.88,0005.70,0005.24
2022-02-05 02:46:00,,0831.1,4.99,0.00,21.9,22.6,00.0,30.8,23.8,08.3,0000.0,0011.23,0005.50,0005.03
2022-02-05 02:47:00,,0831.1,5.01,0.00,21.9,22.3,00.0,30.8,23.8,08.2,0000.0,0010.79,0005.29,0004.85
2022-02-05 02:48:00,,0831.2,5.00,0.00,21.9,22.1,00.0,30.8,23.8,08.2,0000.0,0010.49,0005.28,0004.87
2022-02-05 02:49:00,,0831.2,4.99,0.00,21.9,21.7,00.0,30.8,23.6,08.2,0000.0,0010.48,0005.30,0004.89
2022-02-05 02:50:00,,0831.2,5.00,0.00,21.8,21.6,00.0,30.8,23.5,08.2,0000.0,0010.20,0005.35,0004.97
2022-02-05 02:51:00,,0831.1,5.00,0.00,21.8,21.4,00.0,30.8,23.4,08.3,0000.0,0010.18,0005.48,0005.11
2022-02-05 02:52:00,,0831.2,5.01,0.00,21.7,21.2,00.0,30.8,23.3,08.3,0000.0,0010.48,0005.68,0005.31
2022-02-05 02:53:00,,0831.2,4.99,0.00,21.7,21.1,00.0,30.8,23.2,08.4,0000.0,0010.76,0005.88,0005.52
2022-02-05 02:54:00,,0831.2,5.01,0.00,21.6,21.0,00.0,30.8,23.2,08.4,0000.0,0011.00,0006.01,0005.68
2022-02-05 02:55:00,,0831.2,5.01,0.00,21.6,20.9,00.0,30.7,23.2,08.4,0000.0,0011.09,0006.11,0005.79
2022-02-05 02:56:00,,0831.2,4.99,0.00,21.6,20.9,00.0,30.7,23.2,08.4,0000.0,0010.63,0006.10,0005.77
2022-02-05 02:57:00,,0831.2,5.00,0.00,21.6,20.9,00.0,30.7,23.2,08.4,0000.0,0010.96,0006.28,0005.95
2022-02-05 02:58:00,,0831.0,5.01,0.00,21.5,20.8,00.0,30.7,23.1,08.6,0000.0,0011.57,0006.30,0005.92
2022-02-05 02:59:00,,0831.0,5.00,0.00,21.5,20.8,00.0,30.7,23.1,08.6,0000.0,0011.62,0006.26,0005.88
